Date,TemperatureHighF,TemperatureAvgF,TemperatureLowF,DewpointHighF,DewpointAvgF,DewpointLowF,HumidityHigh,HumidityAvg,HumidityLow,PressureMaxIn,PressureMinIn,WindSpeedMaxMPH,WindSpeedAvgMPH,GustSpeedMaxMPH,PrecipitationSumIn
2013-2-1,29,12,8,18,-11,-100,100,60,56,30.45,29.92,6,2,14,0.00
2013-2-2,35,23,10,28,8,-100,90,75,69,30.40,30.02,7,1,10,0.00
2013-2-3,31,24,16,25,19,14,92,81,68,30.15,29.96,3,1,10,0.00
2013-2-4,36,25,13,32,22,11,97,89,67,30.15,29.84,4,0,10,0.05
2013-2-5,40,35,32,35,32,29,98,90,75,30.01,29.84,3,0,10,0.14
2013-2-6,40,35,28,34,30,26,95,84,69,30.26,29.96,2,0,10,0.14
2013-2-7,64,41,29,41,30,-100,97,77,38,30.21,29.81,4,0,10,0.00
2013-2-8,51,40,36,47,35,-100,100,83,68,30.18,29.78,3,1,10,0.06
2013-2-10,58,38,47,46,4,-100,87,52,39,30.06,29.80,7,3,15,0.03
2013-2-11,54,45,36,51,26,-100,94,63,45,30.05,29.77,11,4,18,0.00
2013-2-12,52,28,24,32,2,-100,97,63,38,30.14,29.91,5,1,7,0.00
2013-2-13,39,32,25,34,29,24,97,90,80,29.95,29.76,3,0,3,0.05
2013-2-14,55,31,25,40,15,-100,98,76,49,30.00,29.83,9,2,14,0.02
2013-2-15,45,34,25,34,28,-100,96,82,57,30.16,29.94,5,1,7,0.00
2013-2-16,34,25,17,25,17,-100,95,75,48,30.16,30.05,5,1,9,0.00
2013-2-17,34,23,12,16,12,6,94,64,32,30.26,30.12,5,1,8,0.00
2013-2-18,61,40,16,41,26,12,93,63,38,30.24,29.76,10,3,20,0.02
2013-2-19,55,36,27,42,28,16,92,73,59,30.13,29.67,12,4,15,0.21
2013-2-20,33,24,21,18,9,-100,81,61,47,30.31,30.09,5,2,9,0.00
2013-2-21,35,20,17,23,-6,-100,89,61,62,30.37,30.16,6,1,11,0.00
2013-2-22,48,39,32,42,36,-100,98,90,79,29.99,29.92,5,1,10,0.03
2013-2-23,48,33,29,33,19,-100,98,73,45,30.00,29.89,5,1,9,0.00
2013-2-24,46,28,25,29,12,-100,96,71,47,30.16,29.92,6,1,11,0.00
2013-2-25,50,30,20,29,9,-100,96,63,43,30.19,29.90,6,1,9,0.00
2013-2-26,53,44,37,51,39,25,96,84,55,29.90,29.34,7,1,9,0.48
2013-2-27,44,39,35,40,35,31,93,87,76,29.73,29.49,6,3,14,0.05
2013-2-28,39,36,34,35,33,30,96,88,83,29.95,29.70,4,2,8,0.01